SDM210 UUEE-UMMS

Flight info

Callsign SDM210
Flight time N/A
Altitude 36000
Route LIDRI3H LIDRI T781 REPNU N858 VEPIS T526 RUHAL RUHAL2H
Aircraft B742/H-VGDW/C

Departure

Time 2026-04-30 14:22
Airport Sheremetyevo International Airport (UUEE)

Arrival

Time N/A
Airport Minsk National Airport (UMMS)
Time Latitude Longitude Altitude Speed Heading
2026-04-30 13:55 55.97797 37.41693 624 ft 0 kts 48°
2026-04-30 14:10 55.97793 37.41684 624 ft 2 kts 48°
2026-04-30 14:10 55.97783 37.41665 624 ft 2 kts 48°
2026-04-30 14:10 55.97773 37.41644 624 ft 2 kts 48°
2026-04-30 14:11 55.97763 37.41624 624 ft 2 kts 48°
2026-04-30 14:11 55.97756 37.41602 624 ft 2 kts 81°
2026-04-30 14:11 55.97758 37.41577 624 ft 2 kts 120°
2026-04-30 14:11 55.97769 37.41562 624 ft 1 kts 158°
2026-04-30 14:12 55.97773 37.41560 624 ft 0 kts 164°
2026-04-30 14:13 55.97772 37.41560 624 ft 1 kts 164°
2026-04-30 14:13 55.97740 37.41579 624 ft 9 kts 160°
2026-04-30 14:13 55.97714 37.41706 624 ft 15 kts 78°
2026-04-30 14:14 55.97742 37.41911 620 ft 19 kts 74°
2026-04-30 14:14 55.97782 37.42176 616 ft 23 kts 75°
2026-04-30 14:14 55.97844 37.42445 616 ft 24 kts 66°
2026-04-30 14:14 55.97891 37.42753 613 ft 27 kts 75°
2026-04-30 14:15 55.97941 37.43087 612 ft 21 kts 75°
2026-04-30 14:15 55.97977 37.43326 616 ft 19 kts 74°
2026-04-30 14:15 55.98013 37.43566 620 ft 19 kts 74°
2026-04-30 14:15 55.98048 37.43807 622 ft 19 kts 75°
2026-04-30 14:16 55.98055 37.43939 624 ft 9 kts 127°
2026-04-30 14:16 55.97971 37.44007 622 ft 17 kts 163°
2026-04-30 14:16 55.97943 37.44020 622 ft 0 kts 165°
2026-04-30 14:18 55.97922 37.44030 621 ft 7 kts 165°
2026-04-30 14:19 55.97807 37.44094 619 ft 3 kts 152°
2026-04-30 14:19 55.97792 37.44089 619 ft 3 kts 220°
2026-04-30 14:19 55.97780 37.44038 619 ft 3 kts 255°
2026-04-30 14:21 55.97779 37.44037 619 ft 0 kts 255°
2026-04-30 14:21 55.97742 37.43788 616 ft 50 kts 255°
2026-04-30 14:21 55.97356 37.41214 627 ft 157 kts 255°
2026-04-30 14:22 55.97043 37.39213 910 ft 174 kts 255°
2026-04-30 14:22 55.96346 37.34843 1754 ft 199 kts 254°
2026-04-30 14:22 55.95957 37.32390 2164 ft 214 kts 256°
2026-04-30 14:23 55.95112 37.26962 3129 ft 235 kts 256°
2026-04-30 14:23 55.94215 37.21237 3825 ft 246 kts 256°
2026-04-30 14:24 55.93266 37.15186 4447 ft 262 kts 256°
2026-04-30 14:24 55.92782 37.12114 5015 ft 260 kts 256°
2026-04-30 14:25 55.91801 37.05891 6199 ft 263 kts 256°
2026-04-30 14:25 55.90963 36.99546 7376 ft 266 kts 271°
2026-04-30 14:26 55.91041 36.92963 8571 ft 270 kts 274°
2026-04-30 14:26 55.91086 36.89634 9133 ft 273 kts 273°
2026-04-30 14:26 55.91159 36.82708 9917 ft 290 kts 273°
2026-04-30 14:27 55.91194 36.78997 10119 ft 304 kts 273°
2026-04-30 14:27 55.91135 36.75284 10149 ft 303 kts 263°
2026-04-30 14:27 55.90690 36.71612 10162 ft 301 kts 258°
2026-04-30 14:28 55.89643 36.64398 10284 ft 307 kts 258°
2026-04-30 14:28 55.89125 36.60749 10984 ft 307 kts 258°
2026-04-30 14:28 55.88606 36.57069 11640 ft 308 kts 259°
2026-04-30 14:28 55.88085 36.53365 12213 ft 311 kts 259°
2026-04-30 14:29 55.87025 36.45853 13329 ft 317 kts 259°
2026-04-30 14:29 55.86218 36.39405 14221 ft 322 kts 261°
2026-04-30 14:30 55.84578 36.26205 15910 ft 334 kts 261°
2026-04-30 14:31 55.83564 36.18077 16887 ft 340 kts 261°
2026-04-30 14:31 55.82540 36.09827 17813 ft 347 kts 262°
2026-04-30 14:31 55.82013 36.05602 18298 ft 350 kts 262°
2026-04-30 14:32 55.80951 35.97135 19234 ft 356 kts 263°
2026-04-30 14:32 55.80407 35.92848 19645 ft 360 kts 263°
2026-04-30 14:32 55.79854 35.88501 20100 ft 364 kts 263°
2026-04-30 14:33 55.79293 35.84105 20549 ft 367 kts 263°
2026-04-30 14:33 55.78154 35.75225 21407 ft 374 kts 263°
2026-04-30 14:33 55.77568 35.70681 21837 ft 377 kts 263°
2026-04-30 14:34 55.76981 35.66136 22230 ft 381 kts 263°
2026-04-30 14:34 55.76384 35.61536 22659 ft 384 kts 263°
2026-04-30 14:34 55.75784 35.56917 23019 ft 388 kts 263°
2026-04-30 14:34 55.75294 35.52286 23378 ft 387 kts 270°
2026-04-30 14:35 55.74885 35.42758 24175 ft 389 kts 274°
2026-04-30 14:35 55.74710 35.37986 24519 ft 393 kts 274°
2026-04-30 14:35 55.74514 35.33120 24889 ft 396 kts 272°
2026-04-30 14:36 55.74282 35.28218 25238 ft 399 kts 272°
2026-04-30 14:36 55.74042 35.23293 25609 ft 401 kts 272°
2026-04-30 14:36 55.73806 35.18306 25941 ft 404 kts 272°
2026-04-30 14:36 55.73576 35.13315 26275 ft 406 kts 272°
2026-04-30 14:37 55.73350 35.08340 26596 ft 409 kts 272°
2026-04-30 14:37 55.73123 35.03324 26899 ft 411 kts 272°
2026-04-30 14:37 55.72897 34.98302 27230 ft 413 kts 272°
2026-04-30 14:37 55.72667 34.93214 27553 ft 415 kts 273°
2026-04-30 14:38 55.72434 34.88060 27841 ft 418 kts 272°
2026-04-30 14:38 55.72200 34.82997 28145 ft 420 kts 272°
2026-04-30 14:38 55.71957 34.77776 28437 ft 422 kts 273°
2026-04-30 14:38 55.71715 34.72620 28732 ft 425 kts 273°
2026-04-30 14:39 55.71468 34.67395 29022 ft 427 kts 273°
2026-04-30 14:39 55.71217 34.62154 29338 ft 428 kts 272°
2026-04-30 14:39 55.70707 34.56950 29540 ft 441 kts 261°
2026-04-30 14:40 55.68693 34.46656 29412 ft 443 kts 256°
2026-04-30 14:40 55.67609 34.41627 29241 ft 443 kts 256°
2026-04-30 14:40 55.66522 34.36531 29132 ft 442 kts 256°
2026-04-30 14:40 55.65447 34.31456 28984 ft 441 kts 255°
2026-04-30 14:41 55.64353 34.26362 28792 ft 442 kts 256°
2026-04-30 14:41 55.63282 34.21332 28663 ft 441 kts 256°
2026-04-30 14:41 55.62216 34.16273 28548 ft 439 kts 256°
2026-04-30 14:41 55.61156 34.11212 28501 ft 436 kts 256°
2026-04-30 14:42 55.59080 34.01296 28497 ft 428 kts 257°
2026-04-30 14:42 55.57040 33.91515 28525 ft 426 kts 257°
2026-04-30 14:43 55.56008 33.86620 28690 ft 431 kts 257°
2026-04-30 14:43 55.54958 33.81665 28860 ft 437 kts 256°
2026-04-30 14:43 55.53886 33.76622 29042 ft 442 kts 256°
2026-04-30 14:43 55.52801 33.71524 29258 ft 446 kts 256°
2026-04-30 14:44 55.51699 33.66364 29603 ft 447 kts 256°
2026-04-30 14:44 55.50712 33.61011 29909 ft 443 kts 262°
2026-04-30 14:44 55.49942 33.55765 30227 ft 443 kts 264°
2026-04-30 14:44 55.49216 33.50486 30416 ft 447 kts 264°
2026-04-30 14:45 55.48470 33.45092 30732 ft 449 kts 264°
2026-04-30 14:45 55.47693 33.39590 30997 ft 451 kts 263°
2026-04-30 14:45 55.46902 33.34082 31173 ft 455 kts 262°
2026-04-30 14:45 55.46085 33.28621 31406 ft 456 kts 261°
2026-04-30 14:46 55.45258 33.23200 31612 ft 457 kts 261°
2026-04-30 14:46 55.44423 33.17675 31787 ft 459 kts 261°
2026-04-30 14:46 55.43588 33.12096 32014 ft 460 kts 262°
2026-04-30 14:46 55.42765 33.06569 32202 ft 462 kts 261°
2026-04-30 14:47 55.41933 33.00978 32477 ft 459 kts 261°
2026-04-30 14:47 55.41128 32.95599 32855 ft 453 kts 261°
2026-04-30 14:47 55.40319 32.90182 33051 ft 453 kts 261°
2026-04-30 14:47 55.39503 32.84717 33108 ft 458 kts 261°
2026-04-30 14:48 55.38686 32.79274 33249 ft 460 kts 261°
2026-04-30 14:48 55.37854 32.73762 33416 ft 461 kts 261°
2026-04-30 14:48 55.37004 32.68150 33603 ft 461 kts 261°
2026-04-30 14:48 55.36160 32.62605 33771 ft 462 kts 261°
2026-04-30 14:49 55.35316 32.57064 33943 ft 463 kts 261°
2026-04-30 14:49 55.34481 32.51609 34110 ft 463 kts 261°
2026-04-30 14:49 55.32791 32.40603 34200 ft 468 kts 261°
2026-04-30 14:50 55.30193 32.24188 34188 ft 464 kts 259°
2026-04-30 14:51 55.27515 32.07429 34197 ft 462 kts 260°
2026-04-30 14:52 55.24920 31.91011 34195 ft 465 kts 260°
2026-04-30 14:52 55.22270 31.74421 34204 ft 465 kts 260°
2026-04-30 14:53 55.19622 31.58002 34207 ft 466 kts 260°
2026-04-30 14:54 55.15987 31.35705 33612 ft 471 kts 260°
2026-04-30 14:55 55.14107 31.24570 32953 ft 474 kts 258°
2026-04-30 14:55 55.13144 31.18941 32610 ft 468 kts 259°
2026-04-30 14:55 55.11298 31.08019 31924 ft 458 kts 259°
2026-04-30 14:56 55.08841 30.97561 31179 ft 470 kts 240°
2026-04-30 14:56 55.04632 30.88582 30256 ft 473 kts 231°
2026-04-30 14:57 55.02415 30.84428 29795 ft 470 kts 230°
2026-04-30 14:57 54.97999 30.76178 28864 ft 462 kts 231°
2026-04-30 14:58 54.93676 30.67983 27936 ft 456 kts 232°
2026-04-30 14:58 54.91535 30.63909 27473 ft 452 kts 232°
2026-04-30 14:58 54.87333 30.55927 26546 ft 445 kts 232°
2026-04-30 14:59 54.83186 30.48080 25616 ft 439 kts 231°
2026-04-30 15:00 54.77023 30.36474 24192 ft 429 kts 231°
2026-04-30 15:00 54.72990 30.28996 23252 ft 423 kts 230°
2026-04-30 15:01 54.68990 30.21595 22312 ft 418 kts 231°
2026-04-30 15:01 54.66979 30.17849 21830 ft 415 kts 231°
2026-04-30 15:01 54.62971 30.10385 20863 ft 409 kts 231°
2026-04-30 15:02 54.60925 30.06583 20368 ft 407 kts 231°
2026-04-30 15:02 54.58942 30.02904 19885 ft 405 kts 231°
2026-04-30 15:03 54.53019 29.91955 18438 ft 398 kts 231°
2026-04-30 15:03 54.49089 29.84718 17623 ft 389 kts 231°
2026-04-30 15:04 54.45242 29.77656 16812 ft 380 kts 231°
2026-04-30 15:04 54.39652 29.67430 15623 ft 368 kts 230°
2026-04-30 15:05 54.34384 29.57819 14676 ft 353 kts 231°
2026-04-30 15:06 54.31007 29.51630 14059 ft 347 kts 231°
2026-04-30 15:06 54.27618 29.45437 13429 ft 343 kts 231°
2026-04-30 15:07 54.24315 29.39418 12811 ft 339 kts 230°
2026-04-30 15:07 54.20991 29.33391 12183 ft 332 kts 229°
2026-04-30 15:08 54.17732 29.27582 11551 ft 322 kts 229°
2026-04-30 15:08 54.13081 29.18811 10566 ft 301 kts 245°
2026-04-30 15:09 54.11261 29.12211 9941 ft 294 kts 250°
2026-04-30 15:09 54.09448 29.05426 9336 ft 287 kts 249°
2026-04-30 15:10 54.07758 28.99212 9247 ft 278 kts 249°
2026-04-30 15:11 54.04405 28.86926 9242 ft 278 kts 249°
2026-04-30 15:11 54.02704 28.80723 9249 ft 277 kts 249°
2026-04-30 15:12 54.00209 28.71648 9250 ft 279 kts 249°
2026-04-30 15:13 53.98569 28.65706 9252 ft 280 kts 249°
2026-04-30 15:14 53.95266 28.53783 8218 ft 274 kts 249°
2026-04-30 15:14 53.92845 28.45164 7225 ft 269 kts 243°
2026-04-30 15:16 53.85621 28.37548 5990 ft 269 kts 154°
2026-04-30 15:17 53.79860 28.45110 5309 ft 248 kts 139°
2026-04-30 15:18 53.73429 28.54578 4051 ft 242 kts 139°
2026-04-30 15:19 53.69026 28.56050 3390 ft 223 kts 225°